Location: Lane
(33.5226°N, 79.8788°W)
Time: 06:07:25
(UTC+00:00)

Altair - Pass Details

Date: 12 October 2022
Orbit: 1501 x 1682 km, 47.2° (Epoch: 08 December)

Event Time Altitude Azimuth Distance (km) Brightness Sun altitude
Rises 04:36:11 0° 178° (S) 4,634 - -63.0°
Reaches altitude 10° 04:40:39 10° 159° (SSE) 3,677 - -63.2°
Maximum altitude 04:45:59 17° 123° (ESE) 3,202 - -63.5°
Drops below altitude 10° 04:51:23 10° 87° (E) 3,757 - -63.6°
Sets 04:55:58 0° 69° (ENE) 4,781 - -63.8°
